Regional Weather Roundup
Issued by NWS Northern Indiana

Home | Current Version | Previous Version | Text Only | Print | Product List | Glossary Off
Versions: 1 2 3 4 5 6 7 8 9 10 11 12 13 14 15 16 17 18 19 20 21 22 23 24 25 26 27 28 29 30 31 32 33 34 35 36 37 38 39 40 41 42 43 44 45 46 47 48 49 50

000
ASUS43 KIWX 261710
RWRIWX

KIWX WEATHER ROUNDUP
NATIONAL WEATHER SERVICE NORTHERN INDIANA
1200 PM EST MON JAN 26 2015

NOTE: "FAIR" INDICATES FEW OR NO CLOUDS BELOW 12,000 FEET WITH NO
SIGNIFICANT WEATHER AND/OR OBSTRUCTIONS TO VISIBILITY.

* THESE STATIONS ARE NOT UNDER NWS QUALITY CONTROL. THEY ALSO MAY NOT
  REPORT WEATHER SUCH AS PRECIPITATION OR FOG.

INZ001>027-261800-
NORTHERN INDIANA

CITY           SKY/WX    TMP DP  RH WIND       PRES   REMARKS
GARY*          CLOUDY    25  12  58 S5        29.96F WCI  19
VALPARAISO     SUNNY     19  12  74 SW7       29.95F WCI  10
MICHIGAN CITY* PTSUNNY   23  10  58 CALM      29.96F
LAPORTE*       SUNNY     22  13  70 CALM      29.95F
KNOX*          SUNNY     19   2  47 SW3       29.95F
SOUTH BEND     SUNNY     20  11  68 SE5       29.95F WCI  13
ELKHART*       SUNNY     19   7  58 CALM      29.96F
GOSHEN         SUNNY     19  12  74 CALM      29.95S
MONTICELLO*    SUNNY     20  12  72 W5        29.97F WCI  13
LOGANSPORT*    SUNNY     18  12  79 SW5       29.98R WCI  11
ROCHESTER*     SUNNY     23  14  68 CALM      29.97S
WARSAW*        MOSUNNY   19  10  68 CALM      29.95S
ANGOLA*        SUNNY     19   5  53 CALM      29.92F
FORT WAYNE     PTSUNNY   19   9  65 CALM      29.95S
HUNTINGTON*    PTSUNNY   17   4  59 CALM      29.95S
PERU/GRISSOM   MOSUNNY   16  10  77 SW2       29.95F
MARION*        MOSUNNY   18   9  68 CALM      29.95F

$$
INZ028>050-261800-
CENTRAL INDIANA

CITY           SKY/WX    TMP DP  RH WIND       PRES   REMARKS
LAFAYETTE      MOSUNNY   23  17  78 W6        29.96F WCI  16
KOKOMO*        SUNNY     19  12  73 W3        29.96S
MUNCIE*        MOSUNNY   20  10  65 CALM      29.94S
INDIANAPOLIS   PTSUNNY   25  20  81 W10       29.96S WCI  15

$$
MIZ043>046-050>051-056>058-064>065-071>073-077>080-261800-
SOUTHWEST LOWER MICHIGAN

CITY           SKY/WX    TMP DP  RH WIND       PRES   REMARKS
BATTLE CREEK   SUNNY     22   8  55 NE3       29.94F
BENTON HARBOR  MOSUNNY   19  11  70 VRB6      29.95F WCI  11
COLDWATER*     SUNNY     18   8  62 CALM      29.93S
HILLSDALE*     SUNNY     19   8  61 CALM      29.90S
HOLLAND        MOSUNNY   19  11  70 E7        29.96F WCI  10
GRAND RAPIDS   CLOUDY    18  10  71 E7        29.95F WCI   9
KALAMAZOO      PTSUNNY   18   8  65 CALM      29.95S
STURGIS*       SUNNY     18   9  68 CALM      29.93F
THREE RIVERS*  FAIR      17   9  69 CALM      29.95F

$$
OHZ001>008-015>018-024>025-261800-
NORTHWEST OHIO

CITY           SKY/WX    TMP DP  RH WIND       PRES   REMARKS
WAUSEON*       FAIR      18  10  73 N7        29.93F WCI   8
DEFIANCE       MOSUNNY   18   9  68 NE5       29.95F WCI  11
FINDLAY        PTSUNNY   18  11  74 N8        29.90F WCI   8
TOLEDO EXPRESS SUNNY     20  10  65 CALM      29.92F
TOLEDO METCALF SUNNY     19   9  65 NE8       29.93F WCI   9
LIMA           MOSUNNY   16   9  74 N7        29.89F WCI   6

$$
AND FOR LAKE MICHIGAN COASTAL AND OPEN LAKE BUOY OBSERVATIONS

STATION/POSITION TEMP    WIND        PRES    VSBY  WAVE
                 AIR SEA DIR/SP/G                  HT/PER
                 (F)     (DEG/KT/KT) (MB)    (MI)  (FT/S)
CALUMET HARBOR    23     170/  5/  6   N/A
MICHIGAN CITY     20     230/  2/  3   N/A
SAINT JOSEPH      22     200/  4/  5 1014.9F

$$
&&


USA.gov is the U.S. government's official web portal to all federal, state and local government web resources and services.